Regional Weather Roundup
Issued by NWS Jackson, KY

Home | Current Version | Previous Version | Text Only | Print | Product List | Glossary Off
Versions: 1 2 3 4 5 6 7 8 9 10 11 12 13 14 15 16 17 18 19 20 21 22 23 24 25 26 27 28 29 30 31 32 33 34 35 36 37 38 39 40 41 42 43 44 45 46 47 48 49 50

000
ASUS43 KJKL 291110
RWRJKL

EAST KENTUCKY HOURLY WEATHER ROUNDUP
NATIONAL WEATHER SERVICE JACKSON KY
700 AM EDT SUN MAR 29 2015

NOTE: "FAIR" INDICATES FEW OR NO CLOUDS BELOW 12,000 FEET WITH
NO SIGNIFICANT WEATHER AND/OR OBSTRUCTIONS TO VISIBILITY.

* THESE REPORTS ARE NOT UNDER NWS QUALITY CONTROL AND MAY NOT
  REPORT WEATHER SUCH AS PRECIPITATION AND FOG.

KYZ079-080-083-085-087-088-110-112-115-119-120-291200
...EASTERN KENTUCKY...

CITY           SKY/WX    TMP DP  RH WIND       PRES   REMARKS
JACKSON        CLEAR     24   8  50 SE5       30.34S WCI  18
LONDON         CLEAR     21  15  78 CALM      30.34S
SOMERSET*      CLEAR     21  18  86 CALM      30.37S
MONTICELLO*    CLEAR     18  14  84 CALM      30.38R
MIDDLESBORO*   CLEAR     20  19  93 CALM      30.38R
HAZARD APT*    SUNNY     21  16  79 E3        30.36R
BLACK MTN*       N/A     18  -2  41 W1          N/A
PIKEVILLE APT* CLEAR     23   9  54 CALM      30.35R
BIG SANDY*     SUNNY     23  15  72 CALM      30.36S
MOREHEAD APT*  SUNNY     23  12  63 SE3       30.38S
$$

KYZ035-036-041-042-044-050-067-078-099-291200
...CENTRAL KENTUCKY...

CITY           SKY/WX    TMP DP  RH WIND       PRES   REMARKS
MT STERLING*   CLEAR     25  14  63 S7        30.37R WCI  17
FLEMING/MASON* CLEAR     19  12  73 SE6       30.37S WCI  11
DANVILLE*      CLEAR     21  18  86 CALM      30.34F
RICHMOND*      CLEAR     21  14  73 SE3       30.34S
LEXINGTON      CLEAR     24  13  62 SE9       30.34F WCI  14
FRANKFORT      CLEAR     22  14  71 CALM      30.33F
$$

KYZ091>093-OHZ055-061-077-WVZ005-015-034-035-042-291200
...SOUTHERN OHIO/WEST VIRGINIA...

CITY           SKY/WX    TMP DP  RH WIND       PRES   REMARKS
COVINGTON      CLEAR     23  12  62 S6        30.34R WCI  16
COLUMBUS       CLEAR     18  14  84 CALM      30.35R
DAYTON         PTCLDY    24  14  65 S8        30.33R WCI  15
WILMINGTON     CLEAR     21  12  68 S6        30.33S WCI  13
HUNTINGTON     CLEAR     18  14  84 CALM      30.38R
CHARLESTON     CLEAR     18  15  88 CALM      30.38R
PINEVILLE*     CLEAR     17  16  95 MISG      30.39R
BECKLEY        CLEAR     14   7  73 CALM      30.28R
BLUEFIELD      CLEAR     18   6  59 W3        30.26R
$$

VAZ002-007-008-TNZ017-027-036-066-071-291200
...SOUTHWEST VIRGINIA/EAST TENNESSEE...

CITY           SKY/WX    TMP DP  RH WIND       PRES   REMARKS
WISE*          CLEAR     19   7  58 CALM      30.29R
JONESVILLE*    SUNNY     18  16  93 CALM      30.38R
ABINGDON*      CLEAR     20  13  73 CALM      30.32R
BRISTOL        CLEAR     19  15  84 CALM      30.35R
KNOXVILLE      CLEAR     27  15  61 N5        30.36R WCI  22
OAK RIDGE      CLEAR     26  20  77 CALM      30.38R
CROSSVILLE     CLEAR     25  16  68 E3        30.30S
NASHVILLE      CLEAR     25  20  81 S3        30.34R
$$

...KEY TO REMARKS...
VSB - VISIBILITY IN MILES
WCI - WIND CHILL INDEX
HX  - HEAT INDEX

$$



USA.gov is the U.S. government's official web portal to all federal, state and local government web resources and services.